(282976) = 2007 UR95 = 2007 TP27

Discovered at Kitt Peak on 2007-10-04 by Spacewatch.

Orbit

Orbit type: Main Belt

Note: WebGL enabled browser required.

epoch2024-03-31.0
epoch JD2460400.5
perihelion date2020-08-28.19698
perihelion JD2459089.69699
argument of perihelion (°)92.30441
ascending node (°)199.77258
inclination (°)2.80301
eccentricity0.1484572
perihelion distance (AU)2.3588130
Tisserand w.r.t. Jupiter3.3
ΔV w.r.t. Earth (km/sec)9.7
semimajor axis (AU)2.7700462
mean anomaly (°)280.22764
mean daily motion (°/day)0.21378320
aphelion distance (AU)3.181
period (years)4.61
P-vector [x]0.37544785
P-vector [y]-0.86861621
P-vector [z]-0.32333387
Q-vector [x]0.92669587
Q-vector [y]0.34557832
Q-vector [z]0.14768339
absolute magnitude16.44
phase slope0.15
uncertainty0
referenceE2024-G51
observations used355
oppositions17
arc length (days)11156
first opposition used1993
last opposition used2024
residual rms (arc-secs)0.75
perturbers coarse indicatorM-v
perturbers precise indicator003Ek
first observation date used1993-09-18.0
last observation date used2024-04-04.0
computer nameMPCLINUX
JD of orbit computation2456700.219671
perihelion JD uncertainty (days)9.6436E-05
argument of perihelion uncertainty (°)1.1906E-04
ascending node uncertainty (°)1.1742E-04
inclination uncertainty (°)6.0788E-06
eccentricity uncertainty 8.0479E-08
perihelion distance uncertainty (AU)2.3077E-07
Minimum Orbit Intersection Distances (in AU)
for orbit epoch: 2460400.5, reference: E2024-G51
Mercury1.91148
Venus1.63453
Earth1.34453
Mars0.93165
Jupiter1.99052
Saturn5.88323
Uranus15.3866
Neptune26.8415

Observations

354 total observations over interval: 1993 09 18.37508 – 2023 01 13.391574
These data are available for download (format description).

Date (UT) J2000 RA J2000 Dec Magn Location Ref
1993 09 18.37508 00 32 00.50 +04 50 27.0   691 – Steward Observatory, Kitt Peak-Spacewatch MPS 229048
1993 09 18.40867 00 31 58.87 +04 50 14.7   691 – Steward Observatory, Kitt Peak-Spacewatch MPS 229048
1993 09 18.44261 00 31 57.26 +04 50 01.5 20.1 V 691 – Steward Observatory, Kitt Peak-Spacewatch MPS 229048
1998 10 18.37110 03 13 32.22 +16 22 55.4 20.6 V 691 – Steward Observatory, Kitt Peak-Spacewatch MPS 229048
1998 10 18.39370 03 13 31.21 +16 22 49.7 20.8 V 691 – Steward Observatory, Kitt Peak-Spacewatch MPS 229048
1998 10 18.42428 03 13 29.82 +16 22 42.6 20.5 V 691 – Steward Observatory, Kitt Peak-Spacewatch MPS 229048
2002 09 05.22577 22 38 19.31 -05 20 24.9 19.6   704 – Lincoln Laboratory ETS, New Mexico MPS 339023
2002 09 05.23992 22 38 18.63 -05 20 29.4 19.6   704 – Lincoln Laboratory ETS, New Mexico MPS 339023
2002 09 05.25404 22 38 17.95 -05 20 34.1 19.3   704 – Lincoln Laboratory ETS, New Mexico MPS 339023
2002 09 05.26817 22 38 17.22 -05 20 38.3 19.6   704 – Lincoln Laboratory ETS, New Mexico MPS 339023
2002 09 14.25531 22 31 37.50 -06 13 13.7 20.1   644 – Palomar Mountain/NEAT MPS 229048
2002 09 14.27651 22 31 36.58 -06 13 20.9 20.0   644 – Palomar Mountain/NEAT MPS 229048
2002 09 14.29734 22 31 35.69 -06 13 28.2 20.0   644 – Palomar Mountain/NEAT MPS 229048
2003 11 29.44389 05 16 21.82 +19 41 17.7 21.6 V 691 – Steward Observatory, Kitt Peak-Spacewatch MPS 229048
2003 11 29.47054 05 16 20.31 +19 41 14.6 21.9 V 691 – Steward Observatory, Kitt Peak-Spacewatch MPS 229048
2003 11 29.50150 05 16 18.63 +19 41 11.5 22.2 V 691 – Steward Observatory, Kitt Peak-Spacewatch MPS 229048
2007 09 05.43262 01 59 13.05 +12 30 57.2 20.4 V G96 – Mt. Lemmon Survey MPS 229048
2007 09 05.43804 01 59 12.98 +12 30 56.3 20.4 V G96 – Mt. Lemmon Survey MPS 229048
2007 10 04.25728 01 45 05.61 +10 44 10.4   691 – Steward Observatory, Kitt Peak-Spacewatch MPS 220727
2007 10 04.27491 01 45 04.76 +10 44 04.5   691 – Steward Observatory, Kitt Peak-Spacewatch MPS 220727
2007 10 04.29252 01 45 03.95 +10 43 58.9   691 – Steward Observatory, Kitt Peak-Spacewatch MPS 220727
2007 10 07.33929 01 42 41.68 +10 27 16.5 20.0 V G96 – Mt. Lemmon Survey MPS 220727
2007 10 07.34492 01 42 41.40 +10 27 14.6 20.0 V G96 – Mt. Lemmon Survey MPS 220727
2007 10 07.35048 01 42 41.11 +10 27 12.7 19.9 V G96 – Mt. Lemmon Survey MPS 220727
2007 10 07.35606 01 42 40.82 +10 27 11.0 19.9 V G96 – Mt. Lemmon Survey MPS 220727
2007 10 14.27616 01 37 00.91 +09 47 19.6   704 – Lincoln Laboratory ETS, New Mexico MPS 407542
2007 10 14.28726 01 37 00.30 +09 47 14.7   704 – Lincoln Laboratory ETS, New Mexico MPS 407542
2007 10 14.29839 01 36 59.74 +09 47 11.1   704 – Lincoln Laboratory ETS, New Mexico MPS 407542
2007 10 18.30581 01 33 38.19 +09 23 29.1 19.7 V G96 – Mt. Lemmon Survey MPS 229048
2007 10 18.31367 01 33 37.76 +09 23 26.4 19.6 V G96 – Mt. Lemmon Survey MPS 229048
2007 10 18.32147 01 33 37.36 +09 23 23.4 19.5 V G96 – Mt. Lemmon Survey MPS 229048
2007 10 18.32927 01 33 36.97 +09 23 20.8 19.7 V G96 – Mt. Lemmon Survey MPS 229048
2007 10 30.26808 01 24 01.11 +08 14 56.4 20.7 V 703 – Catalina Sky Survey MPS 225142
2007 10 30.27457 01 24 00.82 +08 14 53.6 20.8 V 703 – Catalina Sky Survey MPS 225142
2007 10 30.28107 01 24 00.50 +08 14 51.6 20.8 V 703 – Catalina Sky Survey MPS 225142
2007 10 30.28756 01 24 00.21 +08 14 50.7 20.6 V 703 – Catalina Sky Survey MPS 225142
2007 10 30.30176 01 23 59.56 +08 14 44.4 20.1 V G96 – Mt. Lemmon Survey MPS 229048
2007 10 30.31008 01 23 59.17 +08 14 41.8 20.1 V G96 – Mt. Lemmon Survey MPS 229048
2007 10 30.31843 01 23 58.81 +08 14 38.9 19.6 V G96 – Mt. Lemmon Survey MPS 229048
2007 10 30.32674 01 23 58.45 +08 14 36.5 19.9 V G96 – Mt. Lemmon Survey MPS 229048
2007 11 04.10202 01 20 33.68 +07 49 48.5   691 – Steward Observatory, Kitt Peak-Spacewatch MPS 225142
2007 11 04.12045 01 20 32.87 +07 49 43.0   691 – Steward Observatory, Kitt Peak-Spacewatch MPS 225142
2007 11 04.13886 01 20 32.13 +07 49 38.2   691 – Steward Observatory, Kitt Peak-Spacewatch MPS 225142
2010 02 16.488222 12 23 20.109 -04 22 33.74 21.51 g F51 – Pan-STARRS 1, Haleakala MPS 337391
2010 02 16.496537 12 23 19.905 -04 22 31.80 21.62 g F51 – Pan-STARRS 1, Haleakala MPS 337391
2011 06 23.36162 20 58 34.43 -12 36 27.2 20.6 V 691 – Steward Observatory, Kitt Peak-Spacewatch MPS 385360
2011 06 23.37939 20 58 34.17 -12 36 26.7 20.3 V 691 – Steward Observatory, Kitt Peak-Spacewatch MPS 385360
2011 06 23.39717 20 58 33.94 -12 36 26.4 20.3 V 691 – Steward Observatory, Kitt Peak-Spacewatch MPS 385360
2011 06 27.34305 20 57 36.23 -12 35 46.0 20.1 V 691 – Steward Observatory, Kitt Peak-Spacewatch MPS 385801
2011 06 27.36081 20 57 35.87 -12 35 46.2 20.2 V 691 – Steward Observatory, Kitt Peak-Spacewatch MPS 385801
2011 06 27.37858 20 57 35.51 -12 35 46.6 20.2 V 691 – Steward Observatory, Kitt Peak-Spacewatch MPS 385801
2011 07 26.40190 20 39 42.965 -13 32 24.38 20.0 g F51 – Pan-STARRS 1, Haleakala MPS 387763
2011 07 26.41209 20 39 42.432 -13 32 26.46 20.0 g F51 – Pan-STARRS 1, Haleakala MPS 387763
2011 07 26.42329 20 39 41.846 -13 32 28.83 19.5 r F51 – Pan-STARRS 1, Haleakala MPS 387763
2011 07 26.43310 20 39 41.335 -13 32 30.81 19.5 r F51 – Pan-STARRS 1, Haleakala MPS 387763
2012 10 09.46421 04 22 26.50 +19 33 30.8 20.9 V G96 – Mt. Lemmon Survey MPS 437747
2012 10 09.47265 04 22 26.40 +19 33 29.7 20.4 V G96 – Mt. Lemmon Survey MPS 437747
2012 10 09.48131 04 22 26.29 +19 33 28.5 20.7 V G96 – Mt. Lemmon Survey MPS 437747
2012 10 09.48998 04 22 26.14 +19 33 27.5 20.5 V G96 – Mt. Lemmon Survey MPS 437747
2012 10 21.38361 04 17 59.35 +19 08 35.8 20.8 V 691 – Steward Observatory, Kitt Peak-Spacewatch MPS 439365
2012 10 21.40128 04 17 58.84 +19 08 32.7 20.5 V 691 – Steward Observatory, Kitt Peak-Spacewatch MPS 439365
2012 10 21.41896 04 17 58.20 +19 08 30.7 20.8 V 691 – Steward Observatory, Kitt Peak-Spacewatch MPS 439365
2012 10 26.50061 04 15 01.40 +18 55 20.2 20.4 V G96 – Mt. Lemmon Survey MPS 439365
2012 10 26.50436 04 15 01.22 +18 55 19.7 20.9 V G96 – Mt. Lemmon Survey MPS 439365
2012 10 26.50818 04 15 01.11 +18 55 18.8 20.6 V G96 – Mt. Lemmon Survey MPS 439365
2012 10 26.51196 04 15 00.97 +18 55 18.2 20.9 V G96 – Mt. Lemmon Survey MPS 439365
2012 11 04.26261 04 08 43.48 +18 29 34.3 21.0 V 691 – Steward Observatory, Kitt Peak-Spacewatch MPS 441486
2012 11 04.28029 04 08 42.57 +18 29 31.3 21.5 V 691 – Steward Observatory, Kitt Peak-Spacewatch MPS 441486
2012 11 04.29796 04 08 41.74 +18 29 27.4 21.2 V 691 – Steward Observatory, Kitt Peak-Spacewatch MPS 441486
2012 11 13.10919 04 01 10.41 +18 00 34.9 20.2 R J04 – ESA Optical Ground Station, Tenerife MPS 444761
2012 11 13.12077 04 01 09.74 +18 00 32.7 20.4 R J04 – ESA Optical Ground Station, Tenerife MPS 444761
2012 11 13.13234 04 01 09.10 +18 00 30.3 20.2 R J04 – ESA Optical Ground Station, Tenerife MPS 444761
2012 11 13.14391 04 01 08.45 +18 00 28.0 20.7 R J04 – ESA Optical Ground Station, Tenerife MPS 444761
2012 11 23.17540 03 51 55.76 +17 26 09.1 20.4 V 691 – Steward Observatory, Kitt Peak-Spacewatch MPS 444761
2012 11 23.19798 03 51 54.49 +17 26 04.6 20.7 V 691 – Steward Observatory, Kitt Peak-Spacewatch MPS 444761
2012 11 23.21316 03 51 53.61 +17 26 01.3 20.8 V 691 – Steward Observatory, Kitt Peak-Spacewatch MPS 444761
2012 12 03.11944 03 43 04.29 +16 53 44.9 20.3 V G96 – Mt. Lemmon Survey MPS 445850
2012 12 03.12050 03 43 04.29 +16 53 45.4 20.2 V G96 – Mt. Lemmon Survey MPS 445850
2012 12 03.12449 03 43 04.00 +16 53 44.8 20.6 V G96 – Mt. Lemmon Survey MPS 445850
2012 12 03.12552 03 43 04.00 +16 53 44.0 20.2 V G96 – Mt. Lemmon Survey MPS 445850
2012 12 03.12958 03 43 03.79 +16 53 43.8 20.6 V G96 – Mt. Lemmon Survey MPS 445850
2012 12 03.13063 03 43 03.72 +16 53 43.7 20.5 V G96 – Mt. Lemmon Survey MPS 445850
2012 12 03.13471 03 43 03.54 +16 53 42.9 20.8 V G96 – Mt. Lemmon Survey MPS 445850
2012 12 03.13576 03 43 03.43 +16 53 42.3 20.6 V G96 – Mt. Lemmon Survey MPS 445850
2012 12 09.12257 03 38 14.24 +16 36 23.4 19.3 V G96 – Mt. Lemmon Survey MPS 447616
2012 12 09.12809 03 38 13.99 +16 36 21.8 19.6 V G96 – Mt. Lemmon Survey MPS 447616
2012 12 09.13375 03 38 13.63 +16 36 21.8 20.4 V G96 – Mt. Lemmon Survey MPS 447616
